JCSAT-3A

Last updated on Tue Sep 22 2026 00:03:11 GMT+0000 (Coordinated Universal Time)

1 29272U 06033A 26264.58570444 -.00000348 00000+0 00000+0 0 9995 2 29272 0.0233 263.7436 0002442 280.8728 154.7102 1.00270755 48706
UTC large
Height (km)
Speed (km/s)
/
Latitude / Longitude
Inclination (degrees)
Orbital Period (minutes)
Azimuth
Elevation
Range (km)
Doppler Factor

Next 0 passes for location: London (51.5072 / 0.1276)

No passes found over London.
JCSAT-3A